CAS-10

Last updated on Tue Feb 07 2023 00:03:07 GMT+0000 (Coordinated Universal Time)

1 54816U 21035C 23037.60415847 .00148796 00000+0 96041-3 0 9992 2 54816 41.4750 229.1804 0014000 276.6533 83.2720 15.74731664 7801

Satellite not in orbit